Location: Moore
(46.9751°N, 109.6952°W)
Time: 07:01:45
(UTC+00:00)

ISS - Visible Passes

Search period start: 24 January 2022 00:00
Search period end: 03 February 2022 00:00
Orbit: 413 x 422 km, 51.6° (Epoch: 24 January)

Date Brightness Start Highest point End Pass type
(mag) Time Alt. Az. Time Alt. Az. Time Alt. Az.
24 Jan -3.2 01:47:33 10° W 01:50:48 47° NNW 01:51:34 38° NNE visible
25 Jan -3.5 00:59:24 10° WSW 01:02:43 61° NNW 01:05:32 14° ENE visible
25 Jan -1.6 02:36:44 10° WNW 02:38:27 24° NW 02:38:27 24° NW visible
26 Jan -2.8 01:48:34 10° WNW 01:51:42 36° N 01:52:24 32° NNE visible
27 Jan -2.9 01:00:23 10° W 01:03:33 40° N 01:06:20 13° ENE visible
27 Jan -1.7 02:37:36 10° WNW 02:39:15 24° NW 02:39:15 24° NW visible
28 Jan -2.9 01:49:30 10° WNW 01:52:37 36° N 01:53:11 33° NNE visible
29 Jan -2.8 01:01:20 10° WNW 01:04:26 35° N 01:07:09 13° ENE visible
29 Jan -1.9 02:38:17 10° WNW 02:40:04 28° NW 02:40:04 28° NW visible
30 Jan -3.3 01:50:13 10° WNW 01:53:27 45° NNE 01:54:04 40° NE visible
31 Jan -3.0 01:02:06 10° WNW 01:05:16 39° N 01:08:06 12° ENE visible
31 Jan -2.3 02:38:53 10° WNW 02:41:03 37° WNW 02:41:03 37° WNW visible
01 Feb -3.9 01:50:47 10° WNW 01:54:08 77° NNE 01:55:10 41° ESE visible
01 Feb -0.2 03:28:01 10° W 03:28:06 10° W 03:28:06 10° W visible
02 Feb -3.6 01:02:41 10° WNW 01:05:59 56° NNE 01:09:16 10° E visible
02 Feb -2.1 02:39:36 10° WNW 02:42:20 31° SW 02:42:20 31° SW visible
